TimeAST,TemperatureF,Dew PointF,Humidity,Sea Level PressureIn,VisibilityMPH,Wind Direction,Wind SpeedMPH,Gust SpeedMPH,PrecipitationIn,Events,Conditions,WindDirDegrees,DateUTC
12:56 AM,81.0,73.0,77,29.96,10.0,East,4.6,-,N/A,,Partly Cloudy,90,2012-11-03 04:56:00
1:56 AM,80.1,73.0,79,29.95,10.0,Calm,Calm,-,N/A,,Scattered Clouds,0,2012-11-03 05:56:00
2:56 AM,80.1,73.0,79,29.93,10.0,Calm,Calm,-,0.00,,Scattered Clouds,0,2012-11-03 06:56:00
3:56 AM,79.0,73.0,82,29.92,10.0,Calm,Calm,-,0.01,,Scattered Clouds,0,2012-11-03 07:56:00
4:56 AM,79.0,73.0,82,29.92,10.0,Calm,Calm,-,N/A,,Partly Cloudy,0,2012-11-03 08:56:00
5:56 AM,79.0,73.0,82,29.94,10.0,Calm,Calm,-,N/A,,Scattered Clouds,0,2012-11-03 09:56:00
6:56 AM,79.0,73.0,82,29.95,10.0,Calm,Calm,-,N/A,,Scattered Clouds,0,2012-11-03 10:56:00
7:56 AM,80.1,75.0,85,29.97,10.0,Calm,Calm,-,0.01,,Mostly Cloudy,0,2012-11-03 11:56:00
8:56 AM,84.0,75.9,76,29.99,10.0,Calm,Calm,-,N/A,,Scattered Clouds,0,2012-11-03 12:56:00
9:56 AM,84.9,75.0,72,30.00,10.0,ENE,6.9,-,N/A,,Mostly Cloudy,70,2012-11-03 13:56:00
10:56 AM,86.0,73.0,65,29.99,10.0,ENE,9.2,17.3,N/A,,Mostly Cloudy,60,2012-11-03 14:56:00
11:56 AM,88.0,73.9,63,29.97,10.0,ENE,9.2,-,N/A,,Scattered Clouds,70,2012-11-03 15:56:00
12:56 PM,88.0,75.0,65,29.95,10.0,ENE,11.5,-,N/A,,Scattered Clouds,60,2012-11-03 16:56:00
1:56 PM,88.0,73.9,63,29.94,10.0,NNE,11.5,-,N/A,,Scattered Clouds,30,2012-11-03 17:56:00
2:56 PM,87.1,73.9,65,29.93,10.0,NE,10.4,17.3,N/A,,Scattered Clouds,50,2012-11-03 18:56:00
3:56 PM,86.0,73.9,67,29.93,10.0,NE,9.2,-,N/A,,Scattered Clouds,50,2012-11-03 19:56:00
4:56 PM,84.0,73.9,72,29.93,10.0,East,13.8,21.9,N/A,,Scattered Clouds,80,2012-11-03 20:56:00
5:56 PM,81.0,73.9,79,29.93,10.0,East,9.2,-,N/A,,Scattered Clouds,90,2012-11-03 21:56:00
6:56 PM,80.1,73.0,79,29.94,10.0,East,5.8,-,N/A,,Scattered Clouds,80,2012-11-03 22:56:00
7:56 PM,81.0,73.0,77,29.96,10.0,East,6.9,-,N/A,,Scattered Clouds,100,2012-11-03 23:56:00
8:56 PM,80.1,73.9,81,29.97,10.0,Calm,Calm,-,N/A,,Mostly Cloudy,0,2012-11-04 00:56:00
9:56 PM,81.0,73.9,79,29.98,10.0,ESE,3.5,-,N/A,,Mostly Cloudy,120,2012-11-04 01:56:00
10:56 PM,81.0,73.9,79,29.98,10.0,Calm,Calm,-,N/A,,Mostly Cloudy,0,2012-11-04 02:56:00
11:56 PM,81.0,73.9,79,29.97,10.0,Calm,Calm,-,N/A,,Scattered Clouds,0,2012-11-04 03:56:00